Location: Brabourne
(51.1333°N, 1.0000°E)
Time: 06:04:46
(UTC+00:00)

NOSS 3-1 (A) - Pass Details

Date: 23 October 2021
Orbit: 721 x 1491 km, 63.4° (Epoch: 22 November)

Event Time Altitude Azimuth Distance (km) Brightness Sun altitude
Rises 20:23:09 0° 245° (WSW) 3,286 6.7 -34.0°
Reaches altitude 10° 20:25:28 10° 251° (WSW) 2,430 6.0 -34.3°
Enters shadow 20:30:12 48° 303° (WNW) 1,177 4.1 -35.0°
